Regional Weather Roundup
Issued by NWS

Home | Current Version | Previous Version | Text Only | Print | Product List | Glossary Off
Versions: 1 2 3 4 5 6 7 8 9 10 11 12 13 14 15 16 17 18 19 20 21 22 23 24 25 26 27 28 29 30 31 32 33 34 35 36 37 38 39 40 41 42 43 44 45 46 47 48 49 50

344
ASUS43 KMKX 270111
RWRWI

WISCONSIN REGIONAL WEATHER ROUNDUP
NATIONAL WEATHER SERVICE MILWAUKEE/SULLIVAN WI
800 PM CDT MON SEP 26 2016

NOTE: "FAIR" INDICATES FEW OR NO CLOUDS BELOW 12,000 FEET WITH NO
SIGNIFICANT WEATHER AND/OR OBSTRUCTIONS TO VISIBILITY.

WIZ001-002-006>008-014>016-023>028-270200-
NORTHWEST WISCONSIN

CITY           SKY/WX    TMP DP  RH WIND       PRES   REMARKS
SUPERIOR ARPT  CLOUDY    55  43  64 W14G25    29.76R
ASHLAND        CLOUDY    50  47  89 W10G21    29.72S
HAYWARD        LGT RAIN  55  41  59 VRB7      29.78R
SIREN          CLOUDY    57  39  51 W13       29.83R
CUMBERLAND     PTCLDY    54  36  50 W13       29.82S
RICE LAKE      MOCLDY    56  38  50 W8        29.83S
CHETEK         NOT AVBL
LADYSMITH      CLOUDY    57  41  54 W10G17    29.81R
EAU CLAIRE     CLEAR     55  39  54 W8        29.83S
MENOMONIE      CLEAR     58  37  46 W9        29.85R
NEW RICHMOND   CLEAR     50  38  63 W7        29.86S
OSCEOLA        CLEAR     55  39  55 W6        29.88S
$$

WIZ003>005-009-010-017-018-270200-
NORTH CENTRAL WISCONSIN

CITY           SKY/WX    TMP DP  RH WIND       PRES   REMARKS
MANITOWISH WTR NOT AVBL
ARBOR VITAE    RAIN      49  47  93 W13       29.73F
WOODRUFF       RAIN      49  47  93 W13       29.73F
RHINELANDER    LGT RAIN  49  46  90 W12G23    29.76S
EAGLE RIVER    RAIN      47  45  91 W15G24    29.72S
LAND O LAKES   LGT RAIN  47  46  93 W12G21    29.71F
PHILLIPS       LGT RAIN  49  46  88 CALM      29.77S
TOMAHAWK       LGT RAIN  49  43  78 W5        29.77F
MEDFORD        CLOUDY    54  41  61 W10       29.79S
MERRILL        CLOUDY    54  42  62 W8        29.78S
$$

WIZ029-030-035-036-043>047-270200-
CENTRAL WISCONSIN

CITY           SKY/WX    TMP DP  RH WIND       PRES   REMARKS
WAUSAU         MOCLDY    54  41  61 W10       29.78S
MOSINEE        PTCLDY    52  41  66 SW8       29.81F
MARSHFIELD     PTCLDY    53  39  59 W9        29.81F
STEVENS POINT  PTCLDY    53  39  59 SW7       29.82S
WAUPACA        PTCLDY    56  41  55 SW7       29.82S
WAUTOMA        CLEAR     53  41  63 SW7       29.85S
WISC RAPIDS    PTCLDY    54  41  61 W7        29.84F
CAMP DOUGLAS   PTCLDY    49  41  73 W1        29.85F
$$

WIZ011>013-019>022-031-037>040-048>050-270200-
NORTHEAST WISCONSIN

CITY           SKY/WX    TMP DP  RH WIND       PRES   REMARKS
ANTIGO         CLOUDY    51  42  71 W9        29.77F
SHAWANO        CLOUDY    58  41  54 SW8       29.78F
OCONTO         NOT AVBL
STURGEON BAY   CLOUDY    57  42  57 W15G22    29.77F
GREEN BAY      CLOUDY    57  42  57 SW8       29.80S
MANITOWOC      CLOUDY    59  39  47 MISG      29.82S
APPLETON       MOCLDY    55  36  47 SW8       29.81S
CLINTONVILLE   NOT AVBL
OSHKOSH        PTCLDY    57  39  51 W5        29.83S
$$

WIZ032>034-041-042-053>061-270200-
SOUTHWEST WISCONSIN

CITY           SKY/WX    TMP DP  RH WIND       PRES   REMARKS
LA CROSSE      CLEAR     62  36  37 W10       29.87S
SPARTA         CLEAR     47  44  88 CALM      29.87F
VIROQUA        CLEAR     57  33  40 W8        29.90S
BOSCOBEL       CLEAR     60  35  39 SW7       29.91S
PRAIRIE DU CHI CLEAR     60  32  34 W7        29.92R
PLATTEVILLE    CLEAR     57  38  47 W8        29.94R
$$

WIZ056-057-062-063-064-067-068-270200-
SOUTH CENTRAL WISCONSIN

CITY           SKY/WX    TMP DP  RH WIND       PRES   REMARKS
REEDSBURG      NOT AVBL
BARABOO/DELLS  CLEAR     52  39  60 CALM      29.88S
LONE ROCK      CLEAR     58  39  49 W6        29.90R
MINERAL POINT  CLEAR     59  34  38 W9        29.92S
MADISON        CLEAR     59  37  44 VRB3      29.88R
MIDDLETON      NOT AVBL
WATERTOWN      CLEAR     56  39  53 W3        29.88R
MONROE         CLEAR     59  34  38 W13       29.92S
JANESVILLE     CLEAR     61  36  39 W9        29.91R
$$

WIZ051-052-058>065-066-070>072-270200-
SOUTHEAST WISCONSIN

CITY           SKY/WX    TMP DP  RH WIND       PRES   REMARKS
MILWAUKEE      PTCLDY    63  37  38 W7        29.88R
WAUKESHA       PTCLDY    55  37  50 W6        29.89R
MILWAUKEE/TIMM CLEAR     57  36  44 SW5       29.88R
RACINE         CLEAR     60  36  40 SW7       29.90R
BURLINGTON     CLEAR     55  36  48 SW5       29.90R
KENOSHA        CLEAR     59  36  42 W12       29.90S
FOND DU LAC    CLEAR     56  39  53 W6        29.86R
SHEBOYGAN      CLOUDY    57  39  51 W8        29.84R
WEST BEND      CLEAR     55  36  47 W7        29.87R
JUNEAU         CLEAR     56  38  52 W6        29.88S
$$

LSZ147-162-270200-
LAKE SUPERIOR

STATION/POSITION TIME  TEMP    WIND        PRES    WAVE
                       AIR SEA DIR/SP/G            HT/PER
                 (UTC) (F)     (DEG/KT/KT) (MB)    (FT/S)
W MID LAKE BUOY  0050   51 47  250/ 21/ 27 1001.2R   7/ 7
DEVILS ISLAND    0000   53     250/ 28/ 35 1004.0S
SAXON HARBOR     0000   52     220/  9/ 14 1005.8
$$

LMZ867-665-643>646-270200-
LAKE MICHIGAN

STATION/POSITION TIME  TEMP    WIND        PRES    WAVE
                       AIR SEA DIR/SP/G            HT/PER
                 (UTC) (F)     (DEG/KT/KT) (MB)    (FT/S)
CHAMBERS ISLAND  0000   56     230/ 11/ 23 1007.1S
N MID LAKE BUOY  0050   59 67  250/ 29/ 35 1004.9R   6/ 7
NORTHPORT PIER   0000   57     250/  9/ 15 1006.8S
KEWAUNEE LAKESHO 0000   59     270/  9/ 16 1008.6R
SHEBOYGAN LAKESH 0100   60     260/  9/ 13 1010.2R
PORT WASHINGTON  0000   62     260/  4/  7 1011.5
ATWATER BUOY     0000   62 54  250/  6/  6 1011.3R
MILWAUKEE LAKESH 0010   65     260/  9/ 11   N/A
S MID LAKE BUOY  0050   67 71  240/ 23/ 29 1010.9S   5/ 5
KENOSHA   LAKESH 0000   65     260/ 14/ 19 1012.2R
$$

TC  - TEMPERATURE IN CELSIUS
VSB - VISIBILITY IN STATUTE MILES
WCI - WIND CHILL INDEX
HX  - HEAT INDEX





USA.gov is the U.S. government's official web portal to all federal, state and local government web resources and services.